Weather History for KMLB - May, 2014

Change the Weather History Date:

Tuesday, May 13, 2014

  Actual Average Record
Temperature  
Mean Temperature 81 °F 76 °F  
Max Temperature 85 °F 85 °F 93 °F (1971)
Min Temperature 76 °F 66 °F 51 °F (1960)
Degree Days  
Heating Degree Days 0 0  
Month to date heating degree days 0 0  
Since 1 July heating degree days 358 576  
Cooling Degree Days 16 11  
Month to date cooling degree days 158 125  
Year to date cooling degree days 669 500  
Growing Degree Days 30 (Base 50)    
Moisture  
Dew Point 71 °F    
Average Humidity 75    
Maximum Humidity 88    
Minimum Humidity 61    
Precipitation  
Precipitation 0.11 in 0.09 in 1.09 in (1954)
Month to date precipitation 2.83 0.96  
Year to date precipitation 15.48 11.17  
Sea Level Pressure  
Sea Level Pressure 30.07 in    
Wind  
Wind Speed 14 mph (East)    
Max Wind Speed 20 mph    
Max Gust Speed 24 mph    
Visibility 10 miles    
Events Rain    
T = Trace of Precipitation, MM = Missing Value Source: NWS Daily Summary

Daily Weather History Graph

Daily Weather History Graph

Search for Another Location

Airport or City:

Trip Planner

Search our weather history database for the weather conditions in past years. The results will help you decide how hot, cold, wet, or windy it might be!

Date:

Astronomy

May. 13, 2014 Rise Set
Actual Time 6:33 AM EDT 8:04 PM EDT
Civil Twilight 6:08 AM EDT 8:29 PM EDT
Nautical Twilight 5:38 AM EDT 9:00 PM EDT
Astronomical Twilight 5:06 AM EDT 9:32 PM EDT
Moon 7:09 PM EDT (5/13) 5:41 AM EDT (5/13)
Length of Visible Light 14h 21m
Length of Day
13h 30m
Waxing Gibbous, 98% of the Moon is Illuminated
May 13
Waxing Gibbous
May 14
Full
May 21
Last Quarter
May 28
New
Jun 5
First Quarter

Hourly Weather History & Observations

Time (EDT) Temp. Heat Index Dew Point Humidity Pressure Visibility Wind Dir Wind Speed Gust Speed Precip Events Conditions
12:53 AM 77.0 °F - 69.1 °F 76% 30.09 in 10.0 mi ESE 13.8 mph - N/A   Clear
2:53 AM 77.0 °F - 70.0 °F 79% 30.06 in 10.0 mi East 9.2 mph - N/A   Clear
3:53 AM 77.0 °F - 70.0 °F 79% 30.05 in 10.0 mi East 12.7 mph - N/A   Clear
4:53 AM 77.0 °F - 70.0 °F 79% 30.05 in 10.0 mi East 13.8 mph - N/A   Scattered Clouds
5:53 AM 77.0 °F - 69.1 °F 76% 30.05 in 10.0 mi East 13.8 mph - N/A   Partly Cloudy
6:53 AM 77.0 °F - 70.0 °F 79% 30.07 in 10.0 mi East 10.4 mph - N/A   Clear
7:53 AM 78.1 °F - 70.0 °F 76% 30.09 in 10.0 mi East 12.7 mph - N/A   Clear
9:53 AM 81.0 °F 84.4 °F 70.0 °F 69% 30.10 in 10.0 mi East 16.1 mph - N/A   Clear
10:53 AM 82.9 °F 87.0 °F 70.0 °F 65% 30.11 in 10.0 mi East 16.1 mph - N/A   Scattered Clouds
12:53 PM 82.9 °F 86.5 °F 69.1 °F 63% 30.11 in 10.0 mi East 15.0 mph 21.9 mph N/A   Scattered Clouds
1:53 PM 84.0 °F 87.8 °F 69.1 °F 61% 30.10 in 10.0 mi East 13.8 mph - N/A   Scattered Clouds
2:23 PM 84.0 °F 89.0 °F 71.1 °F 65% 30.09 in 10.0 mi East 16.1 mph - N/A   Mostly Cloudy
2:34 PM 84.0 °F 88.4 °F 70.0 °F 63% 30.09 in 10.0 mi East 15.0 mph - N/A   Scattered Clouds
2:53 PM 84.0 °F 88.4 °F 70.0 °F 63% 30.08 in 10.0 mi East 12.7 mph 21.9 mph N/A   Scattered Clouds
3:53 PM 82.9 °F 87.0 °F 70.0 °F 65% 30.07 in 10.0 mi East 15.0 mph - N/A   Overcast
4:09 PM 82.0 °F 85.9 °F 70.0 °F 67% 30.07 in 10.0 mi East 15.0 mph - N/A   Overcast
4:33 PM 84.0 °F 89.0 °F 71.1 °F 65% 30.06 in 10.0 mi East 16.1 mph - N/A   Mostly Cloudy
4:53 PM 82.0 °F 86.7 °F 72.0 °F 71% 30.06 in 10.0 mi East 13.8 mph - N/A   Mostly Cloudy
5:18 PM 82.9 °F 88.0 °F 72.0 °F 69% 30.05 in 10.0 mi East 15.0 mph - N/A   Mostly Cloudy
5:53 PM 81.0 °F 85.2 °F 72.0 °F 74% 30.06 in 10.0 mi East 15.0 mph - N/A   Overcast
6:53 PM 80.1 °F 83.8 °F 72.0 °F 76% 30.05 in 10.0 mi East 18.4 mph - N/A   Mostly Cloudy
7:53 PM 78.1 °F - 73.0 °F 84% 30.05 in 10.0 mi East 12.7 mph - 0.00 in Rain Light Rain
8:08 PM 78.1 °F - 73.0 °F 84% 30.06 in 10.0 mi East 15.0 mph - 0.00 in   Mostly Cloudy
8:28 PM 77.0 °F - 71.1 °F 82% 30.06 in 10.0 mi East 12.7 mph - 0.00 in   Scattered Clouds
8:53 PM 78.1 °F - 72.0 °F 81% 30.06 in 10.0 mi East 13.8 mph - 0.00 in   Partly Cloudy
9:19 PM 77.0 °F - 72.0 °F 84% 30.06 in 10.0 mi ESE 10.4 mph - 0.00 in   Overcast
9:53 PM 77.0 °F - 73.9 °F 90% 30.08 in 6.0 mi East 10.4 mph - 0.05 in   Overcast
10:06 PM 77.0 °F - 73.9 °F 90% 30.08 in 4.0 mi East 10.4 mph - 0.06 in Rain Light Rain
10:18 PM 77.0 °F - 73.9 °F 90% 30.08 in 10.0 mi East 11.5 mph - 0.06 in   Mostly Cloudy
10:38 PM 77.0 °F - 73.9 °F 90% 30.09 in 10.0 mi East 11.5 mph - 0.06 in   Scattered Clouds
10:53 PM 77.0 °F - 73.9 °F 90% 30.09 in 10.0 mi East 11.5 mph - 0.06 in   Scattered Clouds
11:53 PM 77.0 °F - 73.0 °F 88% 30.10 in 10.0 mi East 11.5 mph - N/A   Clear